This demonstration page uses our WeatherBlox Daily Observations layout. Learn more.

36.17497, -115.13722

Hourly Observations for July 21, 2018

Temp ( °F °C ) Dew Point ( °F °C ) Humidity (%) Winds ( mph kmh ) Pressure ( in mb ) Visibility ( mi km ) Precip ( " mm )
12:53 am 00:53 Clear 93 33.9 60 15.6 33 33 Calm 29.83 1010 10 16.09344 0 0
1:53 am 01:53 Clear 91 32.8 59 15 34 34 N 6 9 29.83 1010 10 16.09344 0 0
2:53 am 02:53 Clear 89 31.7 61 16.1 39 39 NNW 3 6 29.83 1010 10 16.09344 0 0
3:53 am 03:53 Clear 88 31.1 61 16.1 40 40 SSE 5 7 29.83 1010 10 16.09344 0 0
4:53 am 04:53 Clear 88 31.1 62 16.7 42 42 Calm 29.85 1011 10 16.09344 0 0
5:53 am 05:53 Sunny 87 30.6 62 16.7 43 43 NNE 3 6 29.85 1011 10 16.09344 0 0
6:53 am 06:53 Sunny 89 31.7 59 15 36 36 NE 5 7 29.85 1011 10 16.09344 0 0
7:53 am 07:53 Sunny 92 33.3 59 15 33 33 N 5 7 29.88 1012 10 16.09344 0 0
8:53 am 08:53 Sunny 94 34.4 59 15 31 31 Calm 29.88 1012 10 16.09344 0 0
9:53 am 09:53 Sunny 96 35.6 58 14.4 28 28 ESE 6 9 29.88 1012 10 16.09344 0 0
10:53 am 10:53 Hazy 95 35 56 13.3 27 27 SE 24 39 29.91 1013 5 8.04672 0 0
11:04 am 11:04 Mostly Cloudy with Haze 96 35.6 55 12.8 25 25 SSE 28 44 29.8 1009 4 6.437376 0 0
11:53 am 11:53 Partly Cloudy 92 33.3 56 13.3 30 30 S 25 41 29.94 1014 9 14.484096 0 0
12:53 pm 12:53 Sunny 92 33.3 55 12.8 29 29 S 21 33 29.94 1014 10 16.09344 0 0
1:29 pm 13:29 Sunny with Nearby Thunderstorms 94 34.4 54 12.2 26 26 S 12 19 29.83 1010 10 16.09344 0 0
1:53 pm 13:53 Sunny with Nearby Thunderstorms 95 35 54 12.2 25 25 S 12 19 29.97 1015 10 16.09344 0 0
2:09 pm 14:09 Sunny with Nearby Thunderstorms 90 32.2 55 12.8 31 31 ESE 24 39 29.88 1012 10 16.09344 0 0
2:29 pm 14:29 Sunny with Thunderstorms 86 30 60 15.6 42 42 SE 28 44 29.88 1012 10 16.09344 0 0
2:53 pm 14:53 Partly Cloudy with Thunderstorms 85 29.4 62 16.7 46 46 SE 23 37 30 1016 10 16.09344 0 0
3:37 pm 15:37 Mostly Cloudy with Nearby Thunderstorms 85 29.4 61 16.1 45 45 ESE 8 13 29.91 1013 10 16.09344 0 0
3:45 pm 15:45 Mostly Cloudy with Light Rain 84 28.9 61 16.1 46 46 N 3 6 29.91 1013 10 16.09344 0.001 0.001
3:53 pm 15:53 Mostly Cloudy with Light Rain 85 29.4 60 15.6 43 43 W 5 7 29.97 1015 10 16.09344 0.001 0.001
4:53 pm 16:53 Mostly Cloudy 88 31.1 58 14.4 36 36 NNE 5 7 29.97 1015 10 16.09344 0.001 0.001
5:53 pm 17:53 Sunny 89 31.7 56 13.3 33 33 N 3 6 29.91 1013 10 16.09344 0 0
6:53 pm 18:53 Sunny 88 31.1 56 13.3 34 34 S 8 13 29.91 1013 10 16.09344 0 0
7:53 pm 19:53 Sunny 87 30.6 57 13.9 36 36 S 7 11 29.91 1013 10 16.09344 0 0
8:53 pm 20:53 Clear 87 30.6 57 13.9 36 36 ESE 7 11 29.94 1014 10 16.09344 0 0
9:53 pm 21:53 Clear 84 28.9 59 15 43 43 E 7 11 29.97 1015 10 16.09344 0 0
10:53 pm 22:53 Clear 83 28.3 58 14.4 43 43 Calm 29.97 1015 10 16.09344 0 0
11:53 pm 23:53 Mostly Clear 84 28.9 59 15 43 43 Calm 29.97 1015 10 16.09344 0 0

Powered by AerisWeather